Regional Weather Roundup
Issued by NWS Cleveland, OH

Home | Current Version | Previous Version | Graphics & Text | Print | Product List | Glossary On
Versions: 1 2 3 4 5 6 7 8 9 10 11 12 13 14 15 16 17 18 19 20 21 22 23 24 25 26 27 28 29 30 31 32 33 34 35 36 37 38 39 40 41 42 43 44 45 46 47 48 49 50
000
ASUS41 KCLE 252000
RWRCLE
OHIO REGIONAL WEATHER ROUNDUP
NATIONAL WEATHER SERVICE WILMINGTON, OH
400 PM EDT THU MAY 25 2017

NOTE: "FAIR" INDICATES FEW OR NO CLOUDS BELOW 12,000 FEET WITH NO
SIGNIFICANT WEATHER AND/OR OBSTRUCTIONS TO VISIBILITY.

OHZ001>008-015>018-024>027-034-035-043-044-252100-
   NORTHWEST OHIO

CITY           SKY/WX    TMP DP  RH WIND       PRES   REMARKS
DEFIANCE       CLOUDY    62  58  86 NW10      29.52R
FINDLAY        PTSUNNY   69  58  67 N15G23    29.47R
TOLEDO EXPRESS LGT RAIN  60  60 100 N9        29.49S FOG
TOLEDO EXEC    CLOUDY    64  60  87 N8        29.49R
LIMA           CLOUDY    64  60  87 NW16G23   29.50R
$$

OHZ009>014-019>023-028>033-038-089-252100-
   NORTHEAST OHIO

CITY           SKY/WX    TMP DP  RH WIND       PRES   REMARKS
CLE-HOPKINS    LGT RAIN  61  58  90 SW6       29.49F FOG
CLE-LAKEFRONT  LGT RAIN  59  55  87 SW5       29.46F FOG
CUY CO. ARPT   LGT RAIN  61  59  94 W8        29.48S FOG
LORAIN-ELYRIA  NOT AVBL
ASHTABULA      PTSUNNY   60  58  92 SW5       29.48R
AKRON-CANTON   LGT RAIN  61  55  81 SW10      29.48S
WOOSTER        NOT AVBL
MANSFIELD      LGT RAIN  62  59  90 NE6       29.48S
YOUNGSTOWN     PTSUNNY   64  55  72 W12       29.47S
$$

OHZ042-051>053-060>062-070>072-077>081-252100-
  SOUTHWEST OHIO

CITY           SKY/WX    TMP DP  RH WIND       PRES   REMARKS
CINC-COVINGTON CLOUDY    61  58  90 NW20G26   29.56R
CINC-LUNKEN    CLOUDY    64  60  87 W16G26    29.55R
HAMILTON       CLOUDY    65  61  87 W13G28    29.54R
DAYTON         PTSUNNY   68  60  75 NW21      29.50R
WRIGHT-PAT AFB NOT AVBL
DAYTON GENERAL CLOUDY    68  60  75 NW15G23   29.49S
WILMINGTON     LGT RAIN  67  60  78 NW8       29.48R
$$

OHZ036-037-039>041-045>050-054>059-063>069-073>076-082>088-252100-
  CENTRAL AND SOUTHEAST OHIO

CITY           SKY/WX    TMP DP  RH WIND       PRES   REMARKS
COLUMBUS       CLOUDY    67  58  72 SW8       29.46S
OSU AIRPORT    FAIR      65  61  87 S6        29.47R
BOLTON FIELD   NOT AVBL
RICKENBACK AFB NOT AVBL
NEWARK         CLOUDY    65  57  75 SW3       29.47R
MARION         PTSUNNY   68  56  65 E6        29.47R
LANCASTER      CLOUDY    69  55  60 VRB7      29.47S
ZANESVILLE     CLOUDY    63  56  78 VRB5      29.48S
NEW PHILLY     CLOUDY    60  56  86 SW6       29.49S
$$




USA.gov is the U.S. government's official web portal to all federal, state and local government web resources and services.